Regional Weather Roundup
Issued by NWS

Home | Current Version | Previous Version | Graphics & Text | Print | Product List | Glossary On
Versions: 1 2 3 4 5 6 7 8 9 10 11 12 13 14 15 16 17 18 19 20 21 22 23 24 25 26 27 28 29 30 31 32 33 34 35 36 37 38 39 40 41 42 43 44 45 46 47 48 49 50
801
ASUS44 KLIX 200705
RWRLA
LOUISIANA WEATHER ROUNDUP
NATIONAL WEATHER SERVICE NEW ORLEANS LA
200 AM CDT MON OCT 20 2014

NOTE: "FAIR" INDICATES FEW OR NO CLOUDS BELOW 12,000 FEET WITH NO
      SIGNIFICANT WEATHER AND/OR OBSTRUCTIONS TO VISIBILITY.
      SKY/WX - SKY CONDITION AND SIGNIFICANT WEATHER.
      TMP - AIR TEMPERATURE.    DP   - DEWPOINT TEMPERATURE.
      RH  - RELATIVE HUMIDITY.  PRES - PRESSURE.
      HX  - HEAT INDEX.         WCI  - WIND CHILL INDEX.

*  THESE STATIONS ARE NOT NWS OR FAA STATIONS AND ARE NOT UNDER
   NWS QUALITY CONTROL.

LAZ040-048-061>063-065-066-069-200800-
SOUTHEAST LOUISIANA

CITY           SKY/WX    TMP DP  RH WIND       PRES   REMARKS
N.O. AUDUBON     N/A     61  61 100 MISG        N/A
N.O. INTL ARPT FAIR      62  55  77 E3        30.05F
N.O. LAKEFRONT FAIR      65  58  78 E5        30.06F
N.O. DOWNTOWN* FAIR      66  55  68 CALM      30.06F
SLIDELL        FAIR      52  49  89 CALM      30.05F
BATON ROUGE    FAIR      55  52  89 CALM      30.06F
BOOTHVILLE     FAIR      70  60  70 E3        30.05F
BELLE CHASSE   FAIR      57  53  86 CALM      30.05F
BOGALUSA*        N/A     50  47  89 CALM      30.08F
NEW ROADS*     FAIR      54  53  97 CALM      30.06F
GONZALES*      FAIR      55  55 100 CALM      30.05F FOG
HAMMOND*       FAIR      52  50  93 CALM      30.07F
HOUMA*         FAIR      59  59 100 CALM      30.04F FOG
PORT FOURCHON* SUNNY     72  61  68 NE8       30.06F

$$

LAZ041-044-053-054-200800-
SOUTHWEST LOUISIANA

CITY           SKY/WX    TMP DP  RH WIND       PRES   REMARKS
LAKE CHARLES   FAIR      60  54  80 E5        30.05F
LAFAYETTE      FAIR      59  56  89 NE3       30.05F
PATTERSON      NOT AVBL
SALT POINT       N/A     65  62  90 CALM      30.04F
NEW IBERIA     FAIR      60  57  89 CALM      30.06F
CHENAULT AIRPK FAIR      59  54  82 CALM      30.05F

$$

LAZ027-028-200800-
CENTRAL LOUISIANA

CITY           SKY/WX    TMP DP  RH WIND       PRES   REMARKS
FORT POLK      FAIR      54  52  92 NE6       30.06F
ALEXANDRIA INT FAIR      52  51  97 CALM      30.05F
ALEXANDRIA     FAIR      49  47  93 CALM      30.06F

$$

LAZ001-002-200800-
NORTHWEST LOUISIANA

CITY           SKY/WX    TMP DP  RH WIND       PRES   REMARKS
SHREVEPORT     FAIR      51  50  96 NE3       30.06F FOG
BARKSDALE AFB  FAIR      53  51  93 N2        30.07F
DTN SHREVEPORT FAIR      52  49  89 CALM      30.07F

$$

LAZ014-016-200800-
NORTHEAST LOUISIANA

CITY           SKY/WX    TMP DP  RH WIND       PRES   REMARKS
MONROE         FAIR      50  49  96 CALM      30.09F
TALLULAH       FAIR      44  43  96 CALM      30.08F

$$




USA.gov is the U.S. government's official web portal to all federal, state and local government web resources and services.